#timestamp,LO_Frequency,Hit,StdDev 
1680213615.7,286046998.5,N
1680213635.5,286047004.9,N
1680213655.3,286047000.3,N
1680213675.2,286046999.3,N
1680213695.0,286046995.1,N
1680213695.9,286046995.1,N
1680213715.7,286046999.2,N
1680213735.6,286046994.9,N
1680213755.4,286046996.8,N
1680213775.3,286047003.7,N
1680213795.1,286047005.5,N
1680213796.0,286047005.5,N
1680213815.8,286047010.1,N
1680213835.7,286047013.3,Y
1680213855.5,286047012.6,P
1680213875.4,286047013.1,N
1680213895.2,286047010.7,N
1680213915.0,286047011.9,N
1680213915.9,286047011.9,N
1680213935.8,286047013.7,Y
1680213955.6,286047002.8,P
1680213975.4,286047000.5,N
1680213995.3,286047003.6,N
1680214015.1,286047004.1,N
1680214035.9,286046999.4,N
1680214055.7,286046999.8,N
1680214075.5,286047003.7,N
1680214095.4,286047002.5,N
1680214115.2,286047002.8,N
1680214135.0,286047005.5,N
1680214135.9,286047005.5,N
1680214155.8,286047000.3,N
1680214175.6,286047007.6,N
1680214195.5,286047004.2,N
1680214215.3,286047005.4,N
1680214235.1,286047001.3,N
1680214255.9,286047004.0,N
1680214275.7,286047006.5,N
1680214295.5,286047008.2,Y
1680214315.4,286047007.6,P
1680214335.2,286047006.5,P
1680214355.1,286047001.8,N
1680214356.0,286047001.8,N
1680214375.8,286046997.3,N
1680214395.6,286046993.6,N
1680214415.5,286046992.3,N
1680214435.3,286046995.2,N
1680214455.1,286046995.6,N
1680214475.9,286047000.8,N
1680214495.7,286046997.8,N
1680214515.6,286046997.6,N
1680214535.4,286046995.9,N
1680214555.2,286046992.5,N
1680214575.1,286046992.4,N
1680214576.0,286046992.4,N
1680214595.8,286046994.2,N
1680214615.6,286046994.6,N
1680214635.5,286046997.5,N
1680214655.3,286046993.2,N
1680214675.2,286046990.4,N
1680214695.9,286046993.3,N
1680214715.7,286046991.8,N
1680214735.6,286046992.7,N
1680214755.4,286046995.2,N
1680214775.2,286046996.6,N
1680214795.1,286046996.1,N
1680214796.0,286046996.1,N
1680214815.8,286046995.4,N
1680214835.7,286046999.5,N
1680214855.5,286046996.0,N
1680214875.3,286046994.2,N
1680214895.2,286047002.7,N
1680214915.0,286046995.3,N
1680214915.9,286046995.3,N
1680214935.7,286046993.8,N
1680214955.6,286047004.4,N
1680214975.4,286047008.6,N
1680214995.3,286047002.4,N
1680215015.1,286046994.7,N
1680215016.0,286046994.7,N
1680215035.8,286046990.0,N
1680215055.7,286046985.4,Y
1680215075.5,286046993.0,P
1680215095.4,286046996.1,N
1680215115.2,286047000.8,N
1680215135.0,286047000.7,N
1680215135.9,286047000.7,N
1680215155.8,286047000.8,N
1680215175.6,286047005.2,N
1680215195.4,286047009.0,N
1680215215.3,286047006.5,N
1680215235.1,286047001.7,N
1680215255.9,286047003.7,N
1680215275.7,286047003.6,N
1680215295.5,286047002.1,N
1680215315.4,286047000.5,N
1680215335.2,286046998.3,N
1680215355.0,286047001.4,N
1680215355.9,286047001.4,N
1680215375.8,286046998.6,N
1680215395.6,286047005.0,N
1680215415.5,286047002.9,N
1680215435.3,286047003.6,N
1680215455.1,286047003.1,N
1680215475.9,286047004.1,N
1680215495.7,286047004.3,N
1680215515.5,286047006.3,N
1680215535.4,286047008.8,N
1680215555.2,286047003.1,N
1680215575.1,286047005.7,N
1680215576.0,286047005.7,N
1680215595.8,286047007.2,N
1680215615.6,286047013.6,Y
1680215635.5,286047015.6,P
1680215655.3,286047014.4,N
1680215675.1,286047012.0,N
1680215695.9,286047008.2,N
1680215715.7,286047006.2,N
1680215735.6,286047010.1,N
1680215755.4,286047011.7,N
1680215775.2,286047003.7,N
1680215795.1,286046996.7,N
1680215796.0,286046996.7,N
1680215815.8,286047001.2,N
1680215835.6,286047001.6,N
1680215855.5,286047001.3,N
1680215875.3,286046999.7,N
1680215895.2,286047005.9,N
1680215915.9,286047012.0,N
1680215935.7,286047013.4,N
1680215955.6,286047016.2,N
1680215975.4,286047020.1,Y
1680215995.2,286047008.9,P
1680216015.1,286047006.7,P
1680216016.0,286047006.7,P
1680216035.8,286047007.9,Y
1680216055.7,286047000.9,P
1680216075.5,286046997.0,N
1680216095.3,286047000.8,N
1680216115.2,286047005.8,N
1680216135.0,286047005.4,N
1680216135.9,286047005.4,N
1680216155.8,286047008.2,N
1680216175.6,286047016.9,Y
1680216195.4,286047014.6,P
1680216215.3,286047016.8,P
1680216235.1,286047015.2,N
1680216255.8,286047010.4,N
1680216275.7,286047005.5,N
1680216295.5,286047003.7,N
1680216315.4,286047003.2,N
1680216335.2,286047007.1,N
1680216355.0,286047003.8,N
1680216355.9,286047003.8,N
1680216375.8,286047000.2,N
1680216395.6,286047000.6,N
1680216415.4,286047000.6,N
1680216435.3,286046996.7,N
1680216455.1,286047002.6,N
1680216475.9,286047000.1,N
1680216495.7,286046999.4,N
1680216515.5,286047004.2,N
1680216535.4,286047002.6,N
1680216555.2,286047000.9,N
1680216575.1,286047003.6,N
1680216576.0,286047003.6,N
1680216595.8,286047004.0,N
1680216615.6,286046999.8,N
1680216635.5,286047001.7,N
1680216655.3,286047002.7,N
1680216675.1,286046998.2,N
1680216695.9,286046999.4,N
1680216715.7,286046996.6,N
1680216735.6,286047000.7,N
1680216755.4,286046997.7,N
1680216775.2,286046995.8,N
1680216795.1,286046994.5,N
1680216796.0,286046994.5,N
1680216815.8,286046994.7,N
1680216835.7,286046996.2,N
1680216855.5,286047001.2,N
1680216875.3,286046998.8,N
1680216895.2,286046994.0,N
1680216915.9,286046993.1,N
1680216935.7,286046990.7,N
1680216955.6,286046987.6,Y
1680216975.4,286046987.9,P
1680216995.3,286046984.4,N
1680217015.1,286046984.6,N
1680217016.0,286046984.6,N
1680217035.8,286046982.1,Y
1680217055.7,286046996.1,P
1680217075.5,286046996.4,N
1680217095.3,286046997.6,N
1680217115.2,286046999.1,N
1680217135.0,286046992.5,N
1680217135.9,286046992.5,N
1680217155.8,286046992.8,N
1680217175.6,286046994.0,N
1680217195.4,286047001.0,N
